Location: Arboyeti
(42.1122°N, 44.6017°E)
Time: 19:38:39
(UTC+00:00)

Terra - Pass Details

Date: 19 April 2021
Orbit: 701 x 703 km, 98.2° (Epoch: 18 May)

Event Time Altitude Azimuth Distance (km) Brightness Sun altitude
Exits shadow 18:54:23 51° 3° (N) 885 2.5 -29.1°
Drops below altitude 10° 18:57:59 10° 350° (N) 2,179 5.1 -29.5°
Sets 19:00:15 0° 349° (N) 3,102 6.1 -29.7°
